Regional Weather Roundup
Issued by NWS

Home | Current Version | Previous Version | Graphics & Text | Print | Product List | Glossary On
Versions: 1 2 3 4 5 6 7 8 9 10 11 12 13 14 15 16 17 18 19 20 21 22 23 24 25 26 27 28 29 30 31 32 33 34 35 36 37 38 39 40 41 42 43 44 45 46 47 48 49 50
000
ASUS43 KBIS 262110
RWRND

NORTH DAKOTA REGIONAL WEATHER ROUNDUP
NATIONAL WEATHER SERVICE BISMARCK ND
400 PM CDT THU MAY 26 2016

NOTE: "FAIR" INDICATES FEW OR NO CLOUDS BELOW 12,000 FEET WITH NO
SIGNIFICANT WEATHER AND/OR OBSTRUCTIONS TO VISIBILITY.


NDZ001>003-009>011-017-262200-
NORTHWEST NORTH DAKOTA

CITY           SKY/WX    TMP DP  RH WIND       PRES   REMARKS
WILLISTON      LGT RAIN  61  51  70 SW8       29.79S
MINOT          PTSUNNY   70  53  54 VRB5      29.78F
MINOT AFB      MOSUNNY   64  54  68 VRB6      29.78F
$$

NDZ018>021-031>035-040>046-262200-
SOUTHWEST NORTH DAKOTA

CITY           SKY/WX    TMP DP  RH WIND       PRES   REMARKS
BISMARCK       CLOUDY    73  44  35 W12       29.77F
DICKINSON      PTSUNNY   63  38  39 W10       29.80F
GARRISON         N/A     55  49  80 SW25      29.81R
HETTINGER ARPT CLOUDY    65  41  41 W16G23    29.83F
$$

NDZ004>008-012>016-024-026-027-054-262200-
NORTHEAST NORTH DAKOTA

CITY           SKY/WX    TMP DP  RH WIND       PRES   REMARKS
GRAND FORKS    PTSUNNY   69  57  65 W10       29.74S
GRND FRKS AFB  MOSUNNY   70  57  62 W14       29.74F
DEVILS LAKE    CLOUDY    63  54  72 NW10      29.79R
$$

NDZ022-023-025-028>030-036>039-047>053-262200-
SOUTHEAST NORTH DAKOTA

CITY           SKY/WX    TMP DP  RH WIND       PRES   REMARKS
FARGO          MOSUNNY   74  55  51 W10G18    29.77F
JAMESTOWN      MOSUNNY   73  51  46 W17       29.77F
$$





USA.gov is the U.S. government's official web portal to all federal, state and local government web resources and services.